[[{"header":{"parameterUnit":"m.s-1","parameterCategory":1,"la1":30.2991,"la2":30.254,"lo1":-89.0895,"lo2":-89.0444,"dy":0.0017,"dx":0.0017,"nx":28,"ny":28,"refTime":"2024-04-24T09:00:00:Z","depth":0,"parameterNumber":2,"parameterNumberName":"U-component_of_WINDS"},"data":[0,0,0,0,0,0,0,0,0,0,0,0,0,0,0,0,0,0,0,0,0,0,0,0,0,0,0,0,0,0,0,0,0,0,0,0,0,0,0,0,0,0,0,0,0,0,0,0,0,0,0,0,0,0,0,0,0,0,-1.2452,-1.245,0,-1.2324,-1.2322,-1.2321,-1.2233,-1.2233,-1.2232,-1.2231,-1.2098,-1.2095,-1.2092,0,0,0,0,0,0,0,0,0,0,0,0,0,-1.2619,-1.2617,-1.2452,-1.245,-1.2449,-1.2324,-1.2322,-1.232,-1.2233,-1.2233,-1.2232,-1.2231,-1.2099,-1.2095,-1.2092,0,0,0,0,0,0,0,0,0,0,0,0,0,-1.2525,-1.2616,-1.2452,-1.239,-1.2383,-1.2324,-1.2322,-1.232,-1.2233,-1.2233,-1.2232,-1.2231,-1.21,-1.2096,-1.2091,-1.2083,0,0,-1.2078,-1.2076,0,0,0,0,0,0,0,0,-1.253,-1.2519,-1.2401,-1.2394,-1.2387,-1.2294,-1.2332,-1.224,-1.2234,-1.229,-1.2231,-1.223,-1.2163,-1.2154,-1.2132,-1.2077,-1.2071,-1.2077,-1.2074,-1.2073,-1.2071,0,0,0,0,0,0,0,-1.2537,-1.2524,-1.2401,-1.2399,-1.2391,-1.2368,-1.2354,-1.2314,-1.2234,-1.2285,-1.2279,-1.2265,-1.2159,-1.2136,-1.2128,-1.2069,-1.2077,-1.2073,-1.2071,-1.2069,-1.2002,-1.2003,0,0,0,0,0,0,-1.2553,-1.253,-1.2405,-1.2397,-1.2458,-1.2366,-1.235,-1.2324,-1.2234,-1.2219,-1.2266,-1.2261,-1.2144,-1.2133,-1.2123,-1.2108,-1.2073,-1.2068,-1.2066,-1.2001,-1.2002,-1.2003,0,0,0,0,0,0,-1.2557,-1.2543,-1.241,-1.2462,-1.2443,-1.2364,-1.2336,-1.2322,-1.2299,-1.2219,-1.2204,-1.2257,-1.2143,-1.2129,-1.2094,-1.2102,-1.2066,-1.2062,-1.2,-1.2001,-1.2002,-1.2077,0,0,0,0,0,0,-1.2562,-1.2545,-1.2541,-1.2462,-1.2441,-1.2384,-1.2337,-1.232,-1.2292,-1.2285,-1.2207,-1.2193,-1.2141,-1.2101,-1.209,-1.2095,-1.2059,-1.1999,-1.2,-1.2002,-1.2074,-1.2081,-1.2087,0,0,0,0,0,-1.2569,-1.2567,-1.2541,-1.2527,-1.2434,-1.2385,-1.2372,-1.2313,-1.2293,-1.2288,-1.2237,-1.2196,-1.2103,-1.2098,-1.2084,-1.2089,-1.1998,-1.2,-1.2002,-1.2071,-1.208,-1.2087,0,0,0,0,0,0,-1.2647,-1.2555,-1.2526,-1.2498,-1.245,-1.237,-1.2362,-1.2324,-1.228,-1.2275,-1.2203,-1.2186,-1.2159,-1.212,-1.2116,-1.2077,-1.2046,-1.2045,-1.2103,-1.2111,-1.2117,-1.2127,-1.2055,0,0,0,0,0,-1.2662,-1.263,-1.255,-1.2534,-1.2511,-1.2441,-1.2417,-1.2376,-1.2323,-1.2302,-1.2248,-1.2198,-1.2157,-1.2132,-1.209,-1.2068,-1.205,-1.2065,-1.2072,-1.2078,-1.2078,-1.2064,-1.207,-1.2009,-1.2009,-1.2009,0,0,-1.269,-1.2636,-1.262,-1.2548,-1.2506,-1.2474,-1.2424,-1.2392,-1.2368,-1.2296,-1.226,-1.222,-1.2158,-1.213,-1.2115,-1.2097,-1.2091,-1.208,-1.2085,-1.2082,-1.2067,-1.2073,-1.2078,-1.2011,-1.201,-1.201,0,0,-1.2726,-1.2682,-1.2664,-1.2623,-1.256,-1.2514,-1.251,-1.2436,-1.2406,-1.2369,-1.2315,-1.2285,-1.2217,-1.2176,-1.2146,-1.2169,-1.2129,-1.2158,-1.2193,-1.2181,-1.2185,-1.2189,-1.2198,-1.2202,-1.2158,-1.2158,-1.2158,0,-1.277,-1.272,-1.2659,-1.263,-1.2601,-1.2536,-1.2517,-1.248,-1.2407,-1.2388,-1.237,-1.2284,-1.2238,-1.22,-1.2206,-1.2184,-1.2177,-1.2166,-1.219,-1.2193,-1.2196,-1.2203,-1.2206,-1.2162,-1.2162,-1.2161,-1.2161,0,-1.2777,-1.2743,-1.2736,-1.2668,-1.2638,-1.2614,-1.2549,-1.2526,-1.2488,-1.2444,-1.2408,-1.2351,-1.2297,-1.2285,-1.2247,-1.2242,-1.2233,-1.2204,-1.217,-1.2206,-1.2212,-1.2214,-1.2168,-1.2166,-1.2165,-1.2164,0,0,-1.2857,-1.2757,-1.2755,-1.2725,-1.2652,-1.2624,-1.2599,-1.2547,-1.2529,-1.2481,-1.2457,-1.2402,-1.2375,-1.2341,-1.2298,-1.2288,-1.2311,-1.2259,-1.2256,-1.227,-1.2302,-1.2325,-1.2329,-1.2284,-1.2285,-1.2285,-1.2307,0,-1.2882,-1.2832,-1.2777,-1.2747,-1.2715,-1.2655,-1.2632,-1.2585,-1.2544,-1.2511,-1.2465,-1.2428,-1.2394,-1.2373,-1.236,-1.2311,-1.2316,-1.2308,-1.2261,-1.226,-1.2278,-1.2332,-1.2355,-1.2379,-1.2309,-1.2309,-1.2309,0,-1.2904,-1.286,-1.2827,-1.2759,-1.2743,-1.2724,-1.2674,-1.2643,-1.2589,-1.2559,-1.2524,-1.2478,-1.2448,-1.242,-1.2377,-1.2374,-1.2351,-1.2325,-1.2324,-1.2317,-1.2287,-1.2326,-1.2385,-1.2389,-1.2312,-1.2312,-1.2312,0,-1.2966,-1.2899,-1.2871,-1.2847,-1.2766,-1.2754,-1.2719,-1.2664,-1.2637,-1.2593,-1.2575,-1.2528,-1.2501,-1.2466,-1.2409,-1.2394,-1.2373,-1.234,-1.2348,-1.2349,-1.2345,-1.2346,-1.2402,-1.2332,-1.2332,-1.2332,-1.2332,0,-1.2999,-1.2982,-1.2898,-1.2881,-1.2859,-1.2797,-1.2777,-1.2737,-1.2689,-1.2663,-1.2608,-1.2584,-1.2511,-1.2479,-1.2435,-1.2407,-1.2395,-1.2371,-1.2359,-1.2375,-1.2379,-1.2359,-1.2356,-1.2332,-1.2332,-1.2332,-1.2332,0,-1.3065,-1.3008,-1.2974,-1.2901,-1.2882,-1.287,-1.2807,-1.2788,-1.2744,-1.2712,-1.2701,-1.2632,-1.2592,-1.2532,-1.2473,-1.2444,-1.2423,-1.2404,-1.2441,-1.2434,-1.2445,-1.2445,-1.249,-1.2493,-1.2422,-1.2423,-1.2424,0,-1.309,-1.3075,-1.3001,-1.298,-1.2948,-1.2915,-1.2888,-1.2826,-1.28,-1.2738,-1.2727,-1.2682,-1.2643,-1.2582,-1.2526,-1.2481,-1.2461,-1.248,-1.2454,-1.2471,-1.2461,-1.2463,-1.2461,-1.2486,-1.2487,-1.2488,-1.2489,0,-1.314,-1.3114,-1.3077,-1.3031,-1.3001,-1.2961,-1.2919,-1.2905,-1.2834,-1.2808,-1.2766,-1.2737,-1.2678,-1.2634,-1.2582,-1.2546,-1.2506,-1.2498,-1.2497,-1.2513,-1.2536,-1.2524,-1.2458,-1.2496,-1.2496,-1.2495,-1.2495,-1.2494,-1.3186,-1.317,-1.3117,-1.3078,-1.304,-1.3003,-1.2982,-1.2936,-1.2901,-1.2849,-1.2814,-1.2775,-1.2722,-1.2648,-1.2615,-1.2583,-1.2566,-1.2565,-1.2565,-1.2566,-1.2572,-1.2542,-1.2574,-1.2573,-1.2573,-1.2573,-1.2572,0,-1.3234,-1.3197,-1.3162,-1.3105,-1.3075,-1.3041,-1.2993,-1.297,-1.2937,-1.2891,-1.2855,-1.2808,-1.2766,-1.2709,-1.2663,-1.2649,-1.2629,-1.2639,-1.2639,-1.2631,-1.2589,-1.2595,-1.2655,-1.2655,-1.2655,-1.2655,-1.2655,-1.2655,-1.3255,-1.3227,-1.3195,-1.3148,-1.311,-1.3072,-1.3048,-1.3013,-1.2977,-1.2927,-1.2893,-1.2856,-1.2805,-1.2756,-1.2716,-1.27,-1.2686,-1.2701,-1.268,-1.2642,-1.2634,-1.2627,-1.2631,-1.2699,-1.2699,-1.2724,-1.2724,-1.2725]},{"header":{"parameterUnit":"m.s-1","parameterCategory":1,"la1":30.2991,"la2":30.254,"lo1":-89.0895,"lo2":-89.0444,"dy":0.0017,"dx":0.0017,"nx":28,"ny":28,"refTime":"2024-04-24T09:00:00:Z","depth":0,"parameterNumber":3,"parameterNumberName":"V-component_of_WINDS"},"data":[0,0,0,0,0,0,0,0,0,0,0,0,0,0,0,0,0,0,0,0,0,0,0,0,0,0,0,0,0,0,0,0,0,0,0,0,0,0,0,0,0,0,0,0,0,0,0,0,0,0,0,0,0,0,0,0,0,0,3.5524,3.5524,0,3.5497,3.5497,3.5497,3.5523,3.5524,3.5525,3.5526,3.5492,3.549,3.5489,0,0,0,0,0,0,0,0,0,0,0,0,0,3.5593,3.5591,3.5524,3.5524,3.5523,3.5497,3.5497,3.5497,3.5523,3.5524,3.5526,3.5527,3.5493,3.5491,3.5488,0,0,0,0,0,0,0,0,0,0,0,0,0,3.5564,3.5591,3.5524,3.5534,3.5534,3.5497,3.5497,3.5496,3.5523,3.5524,3.5526,3.5527,3.5494,3.5491,3.5488,3.5438,0,0,3.5479,3.5478,0,0,0,0,0,0,0,0,3.5566,3.5561,3.5533,3.5533,3.5534,3.5515,3.5509,3.5477,3.5522,3.5527,3.5526,3.5528,3.5498,3.5495,3.5486,3.5437,3.5435,3.5479,3.5477,3.5476,3.5475,0,0,0,0,0,0,0,3.5568,3.5563,3.5513,3.5532,3.5533,3.5538,3.5535,3.5503,3.5504,3.5527,3.5529,3.5525,3.5499,3.5489,3.5486,3.5435,3.5479,3.5477,3.5475,3.5474,3.5345,3.5343,0,0,0,0,0,0,3.5569,3.5564,3.5514,3.5512,3.5554,3.5535,3.5532,3.5519,3.5504,3.5504,3.5524,3.5527,3.5493,3.5489,3.5485,3.5427,3.5476,3.5473,3.5472,3.5346,3.5344,3.5342,0,0,0,0,0,0,3.5571,3.5565,3.5515,3.5539,3.5533,3.5532,3.5517,3.5518,3.5509,3.5502,3.5502,3.5514,3.5494,3.5489,3.5451,3.5426,3.5472,3.547,3.5348,3.5346,3.5343,3.5309,0,0,0,0,0,0,3.5573,3.5565,3.5547,3.5538,3.5532,3.5483,3.5516,3.5516,3.5504,3.5508,3.5493,3.5492,3.5495,3.5455,3.5448,3.5423,3.5467,3.5351,3.5347,3.5344,3.5313,3.5306,3.53,0,0,0,0,0,3.5575,3.5537,3.5546,3.554,3.551,3.5481,3.5477,3.5483,3.5502,3.5484,3.548,3.5493,3.543,3.5451,3.5443,3.5417,3.5352,3.5348,3.5344,3.5315,3.5307,3.53,0,0,0,0,0,0,3.554,3.5536,3.5546,3.5504,3.5493,3.5486,3.5463,3.5474,3.5456,3.5459,3.5466,3.5462,3.5422,3.5415,3.5439,3.5368,3.5394,3.5388,3.5374,3.5366,3.536,3.5363,3.5465,0,0,0,0,0,3.5528,3.5507,3.5504,3.5467,3.5462,3.5463,3.5451,3.5457,3.5445,3.544,3.5433,3.5419,3.5397,3.5381,3.536,3.5312,3.5309,3.529,3.5284,3.5279,3.5274,3.5249,3.5241,3.533,3.533,3.533,0,0,3.5501,3.5497,3.5483,3.546,3.5452,3.543,3.5459,3.5433,3.5416,3.5435,3.54,3.5394,3.5379,3.5337,3.5317,3.533,3.5249,3.5274,3.527,3.5268,3.5244,3.5236,3.5228,3.5327,3.5328,3.5328,0,0,3.5442,3.5437,3.5406,3.5399,3.5388,3.539,3.5382,3.5374,3.5372,3.5337,3.5352,3.533,3.5291,3.528,3.5269,3.5208,3.5219,3.5201,3.5168,3.5144,3.5137,3.513,3.5109,3.5101,3.5196,3.5196,3.5196,0,3.541,3.5378,3.5389,3.5363,3.5352,3.5372,3.5341,3.5332,3.5313,3.5305,3.532,3.5272,3.5263,3.5219,3.5204,3.5195,3.5186,3.5202,3.5137,3.5131,3.5125,3.5105,3.5097,3.5193,3.5194,3.5194,3.5194,0,3.534,3.5318,3.5294,3.5279,3.5266,3.5237,3.5242,3.5227,3.5235,3.5235,3.5199,3.5189,3.5167,3.5157,3.5163,3.5114,3.5122,3.5137,3.5162,3.5115,3.5096,3.5088,3.519,3.5191,3.5192,3.5192,0,0,3.5256,3.525,3.5241,3.5235,3.5225,3.5207,3.5179,3.516,3.5148,3.5134,3.5111,3.5078,3.5093,3.508,3.5085,3.5064,3.5017,3.5081,3.5081,3.507,3.4963,3.4952,3.4943,3.5025,3.5023,3.5022,3.4965,0,3.5198,3.5152,3.5161,3.5116,3.5095,3.5115,3.509,3.5081,3.508,3.5061,3.506,3.5037,3.5058,3.5051,3.5031,3.5027,3.4996,3.5031,3.5002,3.5001,3.5005,3.4933,3.4921,3.4867,3.4957,3.4956,3.4955,0,3.5122,3.511,3.5063,3.5059,3.505,3.5029,3.5013,3.4995,3.4985,3.4986,3.4973,3.4983,3.4954,3.4981,3.4941,3.4965,3.4953,3.495,3.4948,3.4945,3.4975,3.4928,3.485,3.4842,3.4943,3.4944,3.4945,0,3.5067,3.5038,3.5007,3.5001,3.4995,3.4979,3.4975,3.4967,3.4955,3.4941,3.4933,3.4914,3.4904,3.4888,3.4892,3.4911,3.4851,3.4878,3.485,3.485,3.4836,3.4837,3.4755,3.4829,3.4829,3.4829,3.4829,0,3.5,3.4971,3.4982,3.4963,3.4931,3.4942,3.4909,3.4907,3.49,3.4879,3.4894,3.4874,3.488,3.486,3.4863,3.483,3.4824,3.4824,3.4825,3.4822,3.4823,3.4815,3.4818,3.4827,3.4827,3.4828,3.4828,0,3.4932,3.4939,3.4907,3.4904,3.4903,3.4879,3.4876,3.4858,3.4859,3.4834,3.4828,3.4829,3.4807,3.481,3.4784,3.4785,3.4745,3.475,3.4749,3.475,3.4723,3.4725,3.4632,3.4621,3.4702,3.4701,3.4701,0,3.489,3.4868,3.4865,3.4854,3.4849,3.4831,3.482,3.4829,3.4817,3.4805,3.4788,3.4768,3.4752,3.4715,3.4713,3.4693,3.4698,3.4667,3.4695,3.4694,3.4698,3.4699,3.4697,3.4661,3.466,3.4659,3.4659,0,3.4813,3.4818,3.4803,3.479,3.4777,3.4766,3.4757,3.4746,3.4755,3.474,3.4719,3.4707,3.4683,3.4662,3.4644,3.4638,3.4649,3.465,3.4643,3.464,3.4641,3.4641,3.4734,3.4652,3.4653,3.4653,3.4654,3.4654,3.4756,3.4739,3.4734,3.4718,3.4712,3.4703,3.4687,3.4687,3.467,3.4653,3.4659,3.4635,3.4626,3.4604,3.4596,3.4577,3.4588,3.4577,3.4574,3.4571,3.4569,3.4645,3.4573,3.4573,3.4574,3.4574,3.4574,0,3.4681,3.468,3.4664,3.4652,3.4639,3.4654,3.4644,3.4631,3.4611,3.4603,3.4588,3.4564,3.4545,3.4542,3.4523,3.4508,3.4513,3.4503,3.4504,3.4503,3.4559,3.4568,3.45,3.45,3.45,3.45,3.45,3.45,3.464,3.4612,3.4616,3.4585,3.4583,3.4562,3.4556,3.4547,3.4541,3.4515,3.45,3.4499,3.4493,3.4474,3.4457,3.4456,3.4449,3.4437,3.4438,3.4491,3.4498,3.4505,3.4514,3.4435,3.4435,3.4383,3.4382,3.4382]}]]